Location: Newark
(40.9833°N, 0.0333°W)
Time: 02:28:35
(UTC+00:00)

deb Explorer IX - Pass Details

Date: 02 November 2020
Orbit: 537 x 1105 km, 38.8° (Epoch: 02 December)

Event Time Altitude Azimuth Distance (km) Brightness Sun altitude
Rises 10:21:55 0° 269° (W) 3,757 ? 30.9°
Reaches altitude 10° 10:26:47 10° 240° (WSW) 2,894 ? 31.3°
Maximum altitude 10:29:00 12° 221° (SW) 2,800 ? 31.4°
Drops below altitude 10° 10:31:16 10° 203° (SSW) 2,939 ? 31.6°
Sets 10:36:21 0° 173° (S) 3,904 ? 31.9°
